sat.trackr.live / text

‹ back to catalog

STARLINK-11294 [DTC]

NORAD 61054 · 2024-164E

PAYLOAD ACTIVE UNKNOWN

§ Identity

Operator
Country
US
Launch date
2024-09-13
Launch site
AFWTR
Launch vehicle
Mass (kg)
RCS (m²)

Purposes: comms

External: N2YO · Heavens-Above · Gunter

§ Orbital elements

Epoch: 2026-05-24T15:49:28.237440Z

Period
91.74 min
Inclination
53.1585°
Eccentricity
0.0000738
Mean motion
15.69714707 rev/d
Perigee alt
359.2 km
Apogee alt
360.2 km
Semi-major
6,737.9 km
B*
3.8515e-5
RAAN
296.5568°
Arg perigee
41.9703°
Mean anomaly
318.1371°
Rev number
9,735

§ Raw data

STARLINK-11294 [DTC]1 61054U 24164E   26144.65935460  .00004081  00000+0  38515-4 0  99962 61054  53.1585 296.5568 0000738  41.9703 318.1371 15.69714707 97353

JSON: /api/v1/satellites/61054 · /tle

For live sub-satellite position, see the globe view (requires WebGL).

§ Visibility from observer

Set your observer location to see the next 7 days of passes ≥ 10°. The values pass through the URL so the page stays shareable.

No JS? Fill the form by hand. The geolocation button needs JavaScript.